When you browse on this site, cookies collect data to enhance your experience and personalize the content and advertising you see.
Visit our Privacy Policy to learn more. By continuing to use the site, you agree to this use of cookies and data.
  • In United Kingdom
  • List of Countries
  • For 7 days
  • Water Temperature
  • Satellite Maps
  • Weather Map
  • Weather Widgets
  • user-avatar
    Login

    Hourly Weather Dankon

    Today, 23 February, Saturday

    Time Temperature Precipitation Wind Pressure Humidity
    00:00 +22°C° 0 mm 1 mps 702 mmHg 61%
    01:00 +21°C° 0 mm 1 mps 702 mmHg 65%
    02:00 +19°C° 0 mm 0 mps 702 mmHg 66%
    03:00 +19°C° 0 mm 0 mps 702 mmHg 67%
    04:00 +18°C° 0 mm 0 mps 702 mmHg 69%
    05:00 +18°C° 0 mm 0 mps 702 mmHg 69%
    06:00 +18°C° 0 mm 0 mps 702 mmHg 70%
    07:00 +21°C° 0 mm 1 mps 703 mmHg 73%
    08:00 +25°C° 0 mm 1 mps 703 mmHg 58%
    09:00 +28°C° 0 mm 1 mps 704 mmHg 43%
    10:00 +32°C° 0 mm 1 mps 704 mmHg 29%
    11:00 +33°C° 0 mm 1 mps 704 mmHg 25%
    12:00 +34°C° 0 mm 1 mps 703 mmHg 22%
    13:00 +35°C° 0 mm 1 mps 703 mmHg 20%
    14:00 +35°C° 0 mm 1 mps 702 mmHg 19%
    15:00 +34°C° 0 mm 1 mps 702 mmHg 19%
    16:00 +34°C° 0 mm 1 mps 701 mmHg 19%
    17:00 +31°C° 0 mm 1 mps 701 mmHg 24%
    18:00 +28°C° 0 mm 1 mps 701 mmHg 30%
    19:00 +23°C° 0 mm 0 mps 701 mmHg 36%
    20:00 +22°C° 0 mm 0 mps 702 mmHg 38%
    21:00 +22°C° 0 mm 0 mps 702 mmHg 41%
    22:00 +23°C° 0 mm 1 mps 702 mmHg 44%
    23:00 +22°C° 0 mm 1 mps 702 mmHg 46%

    Tomorrow, 24 February, Sunday

    Time Temperature Precipitation Wind Pressure Humidity
    00:00 +22°C° 0 mm 1 mps 702 mmHg 48%
    01:00 +20°C° 0 mm 0 mps 702 mmHg 50%
    02:00 +19°C° 0 mm 0 mps 702 mmHg 52%
    03:00 +19°C° 0 mm 0 mps 702 mmHg 54%
    04:00 +19°C° 0 mm 0 mps 702 mmHg 55%
    05:00 +18°C° 0 mm 0 mps 702 mmHg 56%
    06:00 +18°C° 0 mm 0 mps 702 mmHg 57%
    07:00 +18°C° 0 mm 0 mps 702 mmHg 58%
    08:00 +22°C° 0 mm 0 mps 703 mmHg 49%
    09:00 +27°C° 0 mm 0 mps 704 mmHg 39%
    10:00 +31°C° 0 mm 0 mps 705 mmHg 29%
    11:00 +34°C° 0 mm 1 mps 704 mmHg 26%
    12:00 +35°C° 0 mm 1 mps 704 mmHg 23%
    13:00 +36°C° 0 mm 1 mps 703 mmHg 20%
    14:00 +37°C° 0 mm 2 mps 702 mmHg 21%
    15:00 +36°C° 0 mm 2 mps 701 mmHg 21%
    16:00 +36°C° 0 mm 2 mps 700 mmHg 21%
    17:00 +32°C° 0 mm 1 mps 701 mmHg 28%
    18:00 +29°C° 0 mm 1 mps 701 mmHg 36%
    19:00 +27°C° 0 mm 1 mps 701 mmHg 43%
    20:00 +26°C° 0 mm 1 mps 701 mmHg 46%
    21:00 +25°C° 0 mm 1 mps 702 mmHg 49%
    22:00 +24°C° 0 mm 1 mps 702 mmHg 52%
    23:00 +23°C° 0 mm 1 mps 702 mmHg 53%

    Day after tomorrow, 25 February, Monday

    Time Temperature Precipitation Wind Pressure Humidity
    00:00 +23°C° 0 mm 1 mps 702 mmHg 54%
    01:00 +23°C° 0 mm 1 mps 702 mmHg 55%
    02:00 +22°C° 0 mm 1 mps 702 mmHg 57%
    03:00 +22°C° 0 mm 1 mps 702 mmHg 59%
    04:00 +21°C° 0 mm 1 mps 701 mmHg 61%
    05:00 +21°C° 0 mm 1 mps 702 mmHg 64%
    06:00 +19°C° 0 mm 0 mps 702 mmHg 67%
    07:00 +19°C° 0 mm 0 mps 703 mmHg 70%
    08:00 +23°C° 0 mm 0 mps 704 mmHg 60%
    09:00 +27°C° 0 mm 0 mps 705 mmHg 50%
    10:00 +31°C° 0 mm 0 mps 706 mmHg 41%
    11:00 +34°C° 0 mm 1 mps 705 mmHg 36%
    12:00 +35°C° 0 mm 1 mps 704 mmHg 32%
    13:00 +37°C° 0 mm 2 mps 703 mmHg 28%
    14:00 +36°C° 0 mm 2 mps 702 mmHg 29%
    15:00 +36°C° 0 mm 2 mps 701 mmHg 30%
    16:00 +34°C° 0 mm 1 mps 701 mmHg 31%
    17:00 +32°C° 0 mm 1 mps 701 mmHg 39%
    18:00 +30°C° 0 mm 1 mps 701 mmHg 47%
    19:00 +28°C° 0 mm 1 mps 701 mmHg 55%
    20:00 +26°C° 0.1 mm 1 mps 702 mmHg 61%
    21:00 +25°C° 0.1 mm 1 mps 702 mmHg 67%
    22:00 +24°C° 0.1 mm 1 mps 703 mmHg 73%
    23:00 +23°C° 0.3 mm 1 mps 703 mmHg 77%

    26 February, Tuesday

    Time Temperature Precipitation Wind Pressure Humidity
    00:00 +23°C° 0.3 mm 1 mps 703 mmHg 80%
    01:00 +22°C° 0.3 mm 1 mps 702 mmHg 84%
    02:00 +22°C° 0.1 mm 1 mps 702 mmHg 86%
    03:00 +21°C° 0.1 mm 1 mps 702 mmHg 87%
    04:00 +21°C° 0.1 mm 1 mps 701 mmHg 89%
    05:00 +21°C° 0 mm 1 mps 702 mmHg 88%
    06:00 +19°C° 0 mm 0 mps 703 mmHg 88%
    07:00 +19°C° 0 mm 0 mps 703 mmHg 87%
    08:00 +24°C° 0.3 mm 1 mps 704 mmHg 76%
    09:00 +27°C° 0.3 mm 1 mps 705 mmHg 65%
    10:00 +30°C° 0.3 mm 1 mps 705 mmHg 54%
    11:00 +31°C° 0.2 mm 1 mps 705 mmHg 48%
    12:00 +32°C° 0.2 mm 2 mps 704 mmHg 43%
    13:00 +35°C° 0.2 mm 2 mps 703 mmHg 37%
    14:00 +34°C° 0 mm 2 mps 703 mmHg 37%
    15:00 +34°C° 0 mm 2 mps 702 mmHg 36%
    16:00 +34°C° 0 mm 2 mps 701 mmHg 36%
    17:00 +30°C° 0.2 mm 2 mps 701 mmHg 47%
    18:00 +28°C° 0.2 mm 1 mps 701 mmHg 57%
    19:00 +25°C° 0.2 mm 1 mps 701 mmHg 68%
    20:00 +24°C° 0.1 mm 1 mps 702 mmHg 72%
    21:00 +24°C° 0.1 mm 1 mps 703 mmHg 76%
    22:00 +23°C° 0.1 mm 1 mps 703 mmHg 80%
    23:00 +23°C° 0 mm 1 mps 703 mmHg 81%

    27 February, Wednesday

    Time Temperature Precipitation Wind Pressure Humidity
    00:00 +22°C° 0 mm 1 mps 703 mmHg 82%
    01:00 +22°C° 0 mm 1 mps 702 mmHg 83%
    02:00 +22°C° 0 mm 1 mps 702 mmHg 84%
    03:00 +21°C° 0 mm 1 mps 702 mmHg 84%
    04:00 +19°C° 0 mm 0 mps 701 mmHg 85%
    05:00 +19°C° 0 mm 0 mps 702 mmHg 85%
    06:00 +19°C° 0 mm 0 mps 703 mmHg 85%
    07:00 +19°C° 0 mm 0 mps 703 mmHg 84%
    08:00 +22°C° 0.3 mm 0 mps 704 mmHg 73%
    09:00 +26°C° 0.3 mm 0 mps 705 mmHg 62%
    10:00 +29°C° 0.3 mm 0 mps 705 mmHg 51%
    11:00 +32°C° 0.8 mm 1 mps 704 mmHg 50%
    12:00 +32°C° 0.8 mm 1 mps 703 mmHg 48%
    13:00 +32°C° 0.8 mm 2 mps 703 mmHg 46%
    14:00 +32°C° 0.1 mm 2 mps 702 mmHg 43%
    15:00 +34°C° 0.1 mm 2 mps 702 mmHg 40%
    16:00 +34°C° 0.1 mm 2 mps 701 mmHg 37%
    17:00 +31°C° 0 mm 1 mps 701 mmHg 44%
    18:00 +29°C° 0 mm 1 mps 701 mmHg 52%
    19:00 +26°C° 0 mm 1 mps 701 mmHg 60%
    20:00 +25°C° 0.2 mm 1 mps 702 mmHg 65%
    21:00 +24°C° 0.2 mm 1 mps 702 mmHg 70%
    22:00 +23°C° 0.2 mm 1 mps 702 mmHg 76%
    23:00 +23°C° 0 mm 1 mps 702 mmHg 76%

    28 February, Thursday

    Time Temperature Precipitation Wind Pressure Humidity
    00:00 +23°C° 0 mm 1 mps 702 mmHg 77%
    01:00 +23°C° 0 mm 1 mps 701 mmHg 78%
    02:00 +22°C° 0 mm 1 mps 701 mmHg 78%
    03:00 +22°C° 0 mm 1 mps 701 mmHg 79%
    04:00 +22°C° 0 mm 1 mps 700 mmHg 79%
    05:00 +20°C° 0 mm 0 mps 701 mmHg 79%
    06:00 +20°C° 0 mm 0 mps 701 mmHg 80%
    07:00 +20°C° 0 mm 0 mps 702 mmHg 80%
    08:00 +25°C° 0.4 mm 1 mps 702 mmHg 71%
    09:00 +28°C° 0.4 mm 1 mps 703 mmHg 62%
    10:00 +30°C° 0.4 mm 1 mps 703 mmHg 52%
    11:00 +32°C° 0.2 mm 1 mps 703 mmHg 47%
    12:00 +34°C° 0.2 mm 2 mps 702 mmHg 42%
    13:00 +35°C° 0.2 mm 2 mps 701 mmHg 36%
    14:00 +34°C° 0 mm 2 mps 701 mmHg 37%
    15:00 +34°C° 0 mm 2 mps 700 mmHg 37%
    16:00 +32°C° 0 mm 2 mps 700 mmHg 37%
    17:00 +30°C° 0.1 mm 1 mps 700 mmHg 45%
    18:00 +28°C° 0.1 mm 1 mps 700 mmHg 54%
    19:00 +26°C° 0.1 mm 1 mps 700 mmHg 62%
    20:00 +25°C° 0 mm 1 mps 701 mmHg 66%
    21:00 +24°C° 0 mm 1 mps 701 mmHg 70%
    22:00 +23°C° 0 mm 1 mps 701 mmHg 74%
    23:00 +23°C° 0.1 mm 1 mps 701 mmHg 75%
    Show more